Location: Carri�res
(48.9069°N, 2.1792°E)
Time: 11:47:01
(UTC+00:00)

Cosmos 2228 - Visible Passes

Search period start: 16 May 2021 00:00
Search period end: 26 May 2021 00:00
Orbit: 587 x 619 km, 82.5° (Epoch: 15 May)

Date Brightness Start Highest point End Pass type
(mag) Time Alt. Az. Time Alt. Az. Time Alt. Az.
16 May 4.3 02:03:55 10° N 02:07:58 39° ENE 02:11:59 10° SE visible
17 May 3.5 02:16:09 10° N 02:20:25 62° ENE 02:24:42 10° SSE visible
18 May 5.8 00:52:50 10° NE 00:54:39 12° ENE 00:56:28 10° E visible
18 May 2.9 02:28:30 10° N 02:32:49 83° W 02:37:08 10° S visible
19 May 5.5 01:04:16 10° NNE 01:07:18 18° ENE 01:10:20 10° ESE visible
19 May 3.2 02:40:59 10° NNW 02:45:10 51° W 02:49:21 10° S visible
20 May 4.9 01:16:11 10° NNE 01:19:53 27° ENE 01:23:36 10° SE visible
20 May 3.9 02:53:36 10° NNW 02:57:27 32° W 03:01:19 10° SSW visible
21 May 4.1 01:28:17 10° N 01:32:24 41° ENE 01:36:26 10° SE visible
21 May 4.4 03:06:25 10° NW 03:09:40 21° W 03:12:57 10° SW visible
22 May 3.3 01:40:33 10° N 01:44:51 66° ENE 01:48:21 15° SSE visible
22 May 4.9 03:19:37 10° NW 03:21:51 14° W 03:24:04 10° WSW visible
23 May 5.7 00:17:02 10° NE 00:19:08 13° ENE 00:21:12 10° E visible
23 May 2.9 01:52:55 10° NNW 01:57:15 78° W 02:00:19 19° S visible
24 May 5.3 00:28:35 10° NNE 00:31:46 20° ENE 00:34:56 10° ESE visible
24 May 3.3 02:05:25 10° NNW 02:09:35 48° W 02:12:19 20° SSW visible
25 May 4.7 00:40:32 10° N 00:44:20 29° ENE 00:47:33 13° SE visible
25 May 4.0 02:18:02 10° NNW 02:21:51 31° W 02:24:21 18° SW visible
